星链-31193 (STARLINK-31193 )

导读

STARLINK-31193是美国太空探索技术公司SpaceX星链星座的卫星,于2024年1月15日发射升空,属于星链互联网卫星组网的一员。它依托猎鹰九号运载火箭完成部署,运行在近地轨道,为全球提供低延迟、高速率的宽带互联网服务,进一步扩充了星链星座的卫星规模与覆盖能力。

Basic Information
目录编号:
58797
目录名称:
STARLINK-31193
国际标识:
2024-012L
轨道中心:
EARTH
卫星名称:
星链-31193
卫星全名:
星链-31193 (STARLINK-31193 )
卫星状态:
在轨 (已飞行963 天)
发射日期:
2024-01-15 UTC
国别 :
美国 (US)
星等 :
--
Orbit Information
数据来源 国际轨道数据
星历时间: 2026-09-03T14:11:35+0800
20小时前
查看轨道信息
半长轴: 6861.202km
偏心率: 0.0001519
轨道倾角: 43.002°
近地点辐角 278.392°
升交点赤经 242.361°
平近点角 81.676°
近地点: 482.022km
远地点: 484.108km
周期: 94.267分钟
每日圈数: 15.275748
Detailed Information
固有亮度:
5
最大亮度:
0.3
卫星平台:
Starlink v2.0 mini
覆盖范围:
全球
运营商:
太空探索技术公司
运营商所在国:
美国
制造商(研发单位):
太空探索技术公司
制造商所在国:
美国
使用方式:
暂无
Satellite Introduction
星链(Starlink)计划是由太空探索技术公司(SpaceX)提出的一个巨型低轨卫星互联网星座项目,计划在2019年至2024年间在太空搭建由约1.2万颗卫星组成的“星链”网络,其中1584颗将部署在地球上空550千米处的近地轨道,并从2020年开始工作。该卫星仍在工作。
2D Orbit Map
3D Orbit Map
Orbit Altitude Analysis Chart
Orbit Inclination Analysis Chart
Orbit Comprehensive Analysis Chart
View Comprehensive Chart
Conjunction Data List
Event ID Objects TCA Miss Dist (km) Collision Risk Probability Collision Risk Index (CRI) Action
CDM_260903-165705-879706-203321
2026-09-03T
16:57:38+0000
0.203 km
中距离
6.380275E-4 高风险 0.91
CDM_260904-061705-879706-203321
2026-09-04T
06:17:57+0000
0.859 km
远距离
2.917473E-5 中风险 0.64
CDM_260902-020505-879706-705421
2026-09-02T
02:05:42+0000
1.270 km
极远距离
8.555728E-6 低风险 0.54
CDM_260902-090905-879706-705421
2026-09-02T
09:09:22+0000
1.283 km
极远距离
8.252484E-6 低风险 0.53
CDM_260903-152305-879706-203321
2026-09-03T
15:23:29+0000
1.820 km
极远距离
2.459826E-6 低风险 0.43
CDM_260903-155705-879706-261623
2026-09-03T
15:57:55+0000
2.017 km
极远距离
2.326921E-6 低风险 0.42
CDM_260904-044305-879706-203321
2026-09-04T
04:43:47+0000
1.961 km
极远距离
2.022199E-6 低风险 0.41
CDM_260903-183105-879706-203321
2026-09-03T
18:31:48+0000
2.269 km
极远距离
1.450407E-6 低风险 0.38
CDM_260904-185605-879706-959721
2026-09-04T
18:56:47+0000
2.613 km
极远距离
1.342402E-6 低风险 0.38
CDM_260903-225705-879706-538121
2026-09-03T
22:57:54+0000
2.875 km
极远距离
1.318269E-6 低风险 0.37